| time (UTC) | temp F | wind direction | speed MPH | gust MPH | rain 1hr in | rain 24hr in | rain mn in | humidity % | barometer mb |
| 20260506080201 | 52 | 0 | 0.0 | 0.0 | 0.00 | 0.13 | 0.00 | 92 | 1017.3 |
| 20260506080149 | 52 | 0 | 0.0 | 0.0 | 0.00 | 0.13 | 0.00 | 92 | 1017.4 |
| 20260506073201 | 53 | 0 | 0.0 | 0.0 | 0.00 | 0.13 | 0.00 | 92 | 1017.1 |
| 20260506072912 | 53 | 0 | 0.0 | 0.0 | 0.00 | 0.13 | 0.00 | 92 | 1017.1 |
| 20260506072200 | 53 | 0 | 0.0 | 0.0 | 0.00 | 0.13 | 0.00 | 92 | 1017.0 |
| 20260506071700 | 53 | 0 | 0.0 | 0.0 | 0.00 | 0.13 | 0.00 | 91 | 1016.9 |
| 20260506071200 | 53 | 0 | 0.0 | 1.0 | 0.00 | 0.13 | 0.00 | 91 | 1016.8 |
| 20260506070701 | 54 | 0 | 0.0 | 1.0 | 0.00 | 0.14 | 0.00 | 91 | 1016.7 |
| 20260506070202 | 54 | 0 | 0.0 | 1.0 | 0.00 | 0.15 | 0.00 | 91 | 1016.7 |
| 20260506062201 | 54 | 0 | 0.0 | 0.0 | 0.00 | 0.19 | 0.15 | 90 | 1016.2 |
| 20260506061913 | 54 | 0 | 0.0 | 0.0 | 0.00 | 0.19 | 0.15 | 90 | 1016.2 |
| 20260506061201 | 54 | 0 | 0.0 | 0.0 | 0.00 | 0.19 | 0.15 | 90 | 1016.2 |
| 20260506060701 | 54 | 0 | 0.0 | 0.0 | 0.00 | 0.20 | 0.15 | 90 | 1016.2 |
| 20260506060201 | 54 | 0 | 0.0 | 0.0 | 0.00 | 0.23 | 0.15 | 90 | 1016.2 |
| 20260506051201 | 54 | 0 | 0.0 | 0.0 | 0.00 | 0.25 | 0.15 | 89 | 1015.8 |
| 20260506050701 | 54 | 0 | 0.0 | 0.0 | 0.00 | 0.25 | 0.15 | 89 | 1015.7 |
| 20260506050200 | 54 | 0 | 0.0 | 0.0 | 0.00 | 0.25 | 0.15 | 89 | 1015.7 |
| 20260506044701 | 54 | 0 | 0.0 | 0.0 | 0.00 | 0.26 | 0.15 | 88 | 1015.5 |
| 20260506044202 | 54 | 0 | 0.0 | 0.0 | 0.00 | 0.26 | 0.15 | 88 | 1015.5 |
| 20260506043702 | 54 | 0 | 0.0 | 0.0 | 0.00 | 0.26 | 0.15 | 87 | 1015.4 |
| 20260506043201 | 54 | 0 | 0.0 | 0.0 | 0.00 | 0.26 | 0.15 | 88 | 1015.4 |
| 20260506042701 | 54 | 0 | 0.0 | 0.0 | 0.00 | 0.28 | 0.15 | 89 | 1015.4 |
| 20260506042412 | 54 | 0 | 0.0 | 0.0 | 0.00 | 0.28 | 0.15 | 89 | 1015.3 |
| 20260506041902 | 54 | 0 | 0.0 | 0.0 | 0.00 | 0.29 | 0.15 | 89 | 1015.3 |
| 20260506041411 | 54 | 0 | 0.0 | 0.0 | 0.00 | 0.29 | 0.15 | 90 | 1015.3 |
| 20260506040701 | 54 | 0 | 0.0 | 0.0 | 0.00 | 0.29 | 0.15 | 89 | 1015.2 |
| 20260506040200 | 54 | 0 | 0.0 | 0.0 | 0.00 | 0.30 | 0.15 | 90 | 1015.1 |
| 20260506035700 | 54 | 0 | 0.0 | 0.0 | 0.00 | 0.30 | 0.15 | 90 | 1015.1 |
| 20260506035201 | 55 | 0 | 0.0 | 0.0 | 0.00 | 0.30 | 0.15 | 90 | 1015.0 |
| 20260506034701 | 55 | 0 | 0.0 | 0.0 | 0.00 | 0.30 | 0.15 | 89 | 1014.9 |
| 20260506034411 | 55 | 0 | 0.0 | 0.0 | 0.00 | 0.30 | 0.15 | 89 | 1014.9 |
| 20260506033912 | 55 | 0 | 0.0 | 0.0 | 0.00 | 0.30 | 0.15 | 89 | 1014.8 |
| 20260506033201 | 55 | 0 | 0.0 | 0.0 | 0.00 | 0.30 | 0.15 | 89 | 1014.7 |
| 20260506032701 | 55 | 0 | 0.0 | 0.0 | 0.00 | 0.30 | 0.15 | 88 | 1014.6 |
| 20260506032201 | 55 | 0 | 0.0 | 0.0 | 0.00 | 0.30 | 0.15 | 88 | 1014.6 |
| 20260506031701 | 56 | 0 | 0.0 | 0.0 | 0.00 | 0.30 | 0.15 | 87 | 1014.5 |
| 20260506031411 | 56 | 0 | 0.0 | 0.0 | 0.00 | 0.30 | 0.15 | 87 | 1014.4 |
| 20260506030702 | 56 | 0 | 0.0 | 0.0 | 0.00 | 0.30 | 0.15 | 87 | 1014.3 |
| 20260506030413 | 56 | 0 | 0.0 | 0.0 | 0.00 | 0.30 | 0.15 | 86 | 1014.4 |
| 20260506025702 | 56 | 0 | 0.0 | 0.0 | 0.00 | 0.30 | 0.15 | 86 | 1014.3 |
| 20260506025201 | 56 | 0 | 0.0 | 0.0 | 0.00 | 0.30 | 0.15 | 86 | 1014.3 |
| 20260506024912 | 57 | 0 | 0.0 | 0.0 | 0.00 | 0.30 | 0.15 | 85 | 1014.4 |
| 20260506024201 | 57 | 0 | 0.0 | 0.0 | 0.00 | 0.30 | 0.15 | 84 | 1014.3 |
| 20260506023701 | 57 | 0 | 0.0 | 1.0 | 0.00 | 0.30 | 0.15 | 84 | 1014.2 |
| 20260506023201 | 57 | 0 | 0.0 | 1.0 | 0.00 | 0.30 | 0.15 | 84 | 1014.2 |
| 20260506022701 | 57 | 203 | 0.0 | 2.0 | 0.00 | 0.30 | 0.15 | 84 | 1014.1 |
| 20260506022201 | 57 | 0 | 0.0 | 2.0 | 0.00 | 0.30 | 0.15 | 84 | 1014.1 |
| 20260506021702 | 57 | 198 | 0.0 | 1.0 | 0.00 | 0.30 | 0.15 | 84 | 1014.2 |
| 20260506021201 | 57 | 0 | 0.0 | 1.0 | 0.00 | 0.30 | 0.15 | 83 | 1014.2 |
| 20260506020701 | 57 | 0 | 0.0 | 1.0 | 0.00 | 0.30 | 0.15 | 83 | 1014.3 |
| 20260506020201 | 58 | 0 | 0.0 | 1.0 | 0.00 | 0.30 | 0.15 | 82 | 1014.2 |
| 20260506015912 | 58 | 0 | 0.0 | 2.0 | 0.00 | 0.30 | 0.15 | 82 | 1014.2 |
| 20260506015413 | 58 | 0 | 0.0 | 2.0 | 0.00 | 0.30 | 0.15 | 82 | 1014.1 |
| 20260506014701 | 58 | 0 | 0.0 | 0.0 | 0.00 | 0.30 | 0.15 | 81 | 1014.1 |
| 20260506014413 | 58 | 0 | 0.0 | 0.0 | 0.00 | 0.30 | 0.15 | 80 | 1014.1 |
| 20260506013700 | 58 | 0 | 0.0 | 2.0 | 0.00 | 0.30 | 0.15 | 81 | 1014.1 |
| 20260506013200 | 58 | 0 | 0.0 | 2.0 | 0.00 | 0.30 | 0.15 | 80 | 1014.1 |
| 20260506012701 | 58 | 0 | 0.0 | 3.0 | 0.00 | 0.30 | 0.15 | 81 | 1013.9 |
| 20260506012201 | 58 | 204 | 0.0 | 3.0 | 0.00 | 0.30 | 0.15 | 80 | 1014.1 |
| 20260506011701 | 58 | 0 | 0.0 | 2.0 | 0.00 | 0.30 | 0.15 | 79 | 1014.1 |
| 20260506011202 | 58 | 0 | 0.0 | 2.0 | 0.00 | 0.30 | 0.15 | 80 | 1013.9 |
| 20260506010702 | 58 | 0 | 0.0 | 2.0 | 0.00 | 0.30 | 0.15 | 80 | 1013.9 |
| 20260506010201 | 58 | 0 | 0.0 | 2.0 | 0.00 | 0.30 | 0.15 | 80 | 1013.8 |
| 20260506005700 | 58 | 0 | 0.0 | 1.0 | 0.00 | 0.30 | 0.15 | 81 | 1013.9 |
| 20260506005201 | 58 | 0 | 0.0 | 1.0 | 0.00 | 0.30 | 0.15 | 81 | 1013.9 |
| 20260506004701 | 58 | 0 | 0.0 | 2.0 | 0.00 | 0.30 | 0.15 | 81 | 1013.9 |
| 20260506004201 | 58 | 0 | 0.0 | 2.0 | 0.00 | 0.30 | 0.15 | 80 | 1013.9 |
| 20260506003701 | 58 | 0 | 0.0 | 1.0 | 0.00 | 0.30 | 0.15 | 81 | 1013.9 |
| 20260506003201 | 58 | 0 | 0.0 | 0.0 | 0.00 | 0.30 | 0.15 | 81 | 1013.9 |
| 20260506002701 | 58 | 0 | 0.0 | 0.0 | 0.00 | 0.30 | 0.15 | 79 | 1013.9 |
| 20260506002202 | 58 | 0 | 0.0 | 0.0 | 0.00 | 0.30 | 0.15 | 80 | 1013.9 |
| 20260506001913 | 58 | 0 | 0.0 | 0.0 | 0.00 | 0.30 | 0.15 | 80 | 1013.8 |
| 20260506001201 | 58 | 0 | 0.0 | 1.0 | 0.00 | 0.30 | 0.15 | 80 | 1013.8 |
| 20260506000701 | 58 | 0 | 0.0 | 1.0 | 0.00 | 0.30 | 0.15 | 81 | 1013.8 |
| 20260506000637 | 58 | 0 | 0.0 | 1.0 | 0.00 | 0.30 | 0.15 | 80 | 1013.8 |
| 20260506000412 | 58 | 0 | 0.0 | 1.0 | 0.00 | 0.30 | 0.15 | 80 | 1013.8 |
| 20260505235700 | 57 | 0 | 0.0 | 1.0 | 0.00 | 0.30 | 0.15 | 81 | 1013.7 |
| 20260505235201 | 57 | 0 | 0.0 | 0.0 | 0.00 | 0.30 | 0.15 | 81 | 1013.7 |
| 20260505234855 | 57 | 0 | 0.0 | 0.0 | 0.00 | 0.30 | 0.15 | 80 | 1013.7 |
| 20260505234412 | 57 | 0 | 0.0 | 0.0 | 0.00 | 0.30 | 0.15 | 81 | 1013.7 |
| 20260505233913 | 57 | 0 | 0.0 | 0.0 | 0.00 | 0.30 | 0.15 | 83 | 1013.6 |
| 20260505233201 | 57 | 0 | 0.0 | 0.0 | 0.00 | 0.30 | 0.15 | 81 | 1013.6 |
| 20260505232701 | 57 | 0 | 0.0 | 0.0 | 0.00 | 0.30 | 0.15 | 82 | 1013.6 |
| 20260505232200 | 57 | 0 | 0.0 | 0.0 | 0.00 | 0.30 | 0.15 | 82 | 1013.6 |
| 20260505231701 | 57 | 0 | 0.0 | 0.0 | 0.00 | 0.30 | 0.15 | 81 | 1013.6 |
| 20260505231200 | 57 | 0 | 0.0 | 0.0 | 0.00 | 0.30 | 0.15 | 82 | 1013.6 |
| 20260505230701 | 57 | 0 | 0.0 | 0.0 | 0.00 | 0.31 | 0.15 | 80 | 1013.6 |
| 20260505230201 | 57 | 0 | 0.0 | 0.0 | 0.00 | 0.31 | 0.15 | 82 | 1013.5 |
| 20260505225701 | 58 | 0 | 0.0 | 1.0 | 0.00 | 0.31 | 0.15 | 82 | 1013.5 |
| 20260505225201 | 58 | 0 | 0.0 | 1.0 | 0.00 | 0.31 | 0.15 | 80 | 1013.5 |
| 20260505224701 | 58 | 0 | 0.0 | 1.0 | 0.00 | 0.31 | 0.15 | 81 | 1013.6 |
| 20260505224201 | 58 | 0 | 0.0 | 1.0 | 0.00 | 0.31 | 0.15 | 79 | 1013.6 |
| 20260505223912 | 58 | 0 | 0.0 | 3.0 | 0.00 | 0.31 | 0.15 | 79 | 1013.6 |
| 20260505223201 | 57 | 0 | 0.0 | 3.0 | 0.00 | 0.31 | 0.15 | 80 | 1013.6 |
| 20260505222912 | 57 | 194 | 0.0 | 1.0 | 0.00 | 0.31 | 0.15 | 81 | 1013.7 |
| 20260505222201 | 57 | 0 | 0.0 | 1.0 | 0.00 | 0.31 | 0.15 | 81 | 1013.7 |
| 20260505221701 | 57 | 0 | 0.0 | 1.0 | 0.00 | 0.31 | 0.15 | 82 | 1013.8 |
| 20260505221201 | 57 | 0 | 0.0 | 1.0 | 0.00 | 0.31 | 0.15 | 80 | 1013.8 |
| 20260505220701 | 57 | 0 | 0.0 | 1.0 | 0.00 | 0.31 | 0.15 | 81 | 1013.8 |
| 20260505220201 | 57 | 0 | 0.0 | 2.0 | 0.00 | 0.31 | 0.15 | 80 | 1013.8 |
| 20260505215700 | 57 | 0 | 0.0 | 2.0 | 0.00 | 0.31 | 0.15 | 80 | 1013.8 |
| 20260505215200 | 57 | 0 | 0.0 | 2.0 | 0.00 | 0.31 | 0.15 | 83 | 1013.9 |
| 20260505214701 | 57 | 0 | 0.0 | 2.0 | 0.00 | 0.31 | 0.15 | 82 | 1013.9 |
| 20260505214201 | 57 | 0 | 0.0 | 2.0 | 0.00 | 0.31 | 0.15 | 82 | 1013.9 |
| 20260505213700 | 57 | 0 | 0.0 | 3.0 | 0.00 | 0.31 | 0.15 | 84 | 1013.9 |
| 20260505213413 | 56 | 193 | 0.0 | 4.0 | 0.00 | 0.31 | 0.15 | 82 | 1013.9 |
| 20260505212701 | 56 | 251 | 0.0 | 4.0 | 0.00 | 0.31 | 0.15 | 84 | 1013.9 |
| 20260505212200 | 56 | 168 | 0.0 | 4.0 | 0.00 | 0.32 | 0.15 | 84 | 1013.9 |
| 20260505211700 | 56 | 0 | 1.0 | 3.0 | 0.00 | 0.32 | 0.15 | 85 | 1013.9 |
| 20260505211413 | 56 | 193 | 0.0 | 3.0 | 0.00 | 0.32 | 0.15 | 85 | 1014.1 |
| 20260505210701 | 56 | 217 | 0.0 | 3.0 | 0.00 | 0.32 | 0.15 | 85 | 1014.1 |
| 20260505210413 | 56 | 206 | 0.0 | 3.0 | 0.00 | 0.33 | 0.15 | 84 | 1014.1 |
| 20260505205701 | 56 | 0 | 1.0 | 3.0 | 0.00 | 0.33 | 0.15 | 83 | 1013.9 |
| 20260505205201 | 57 | 212 | 1.0 | 3.0 | 0.00 | 0.33 | 0.15 | 84 | 1014.1 |
| 20260505204701 | 57 | 0 | 1.0 | 4.0 | 0.00 | 0.33 | 0.15 | 81 | 1014.1 |
| 20260505204200 | 57 | 189 | 1.0 | 4.0 | 0.00 | 0.33 | 0.15 | 80 | 1013.9 |
| 20260505203701 | 58 | 248 | 1.0 | 5.0 | 0.00 | 0.33 | 0.15 | 80 | 1013.9 |
| 20260505203201 | 58 | 212 | 1.0 | 5.0 | 0.00 | 0.33 | 0.15 | 79 | 1013.9 |
| 20260505202701 | 58 | 203 | 1.0 | 5.0 | 0.00 | 0.33 | 0.15 | 78 | 1013.9 |
| 20260505202202 | 58 | 0 | 1.0 | 4.0 | 0.00 | 0.33 | 0.15 | 79 | 1013.8 |
| 20260505201901 | 57 | 281 | 1.0 | 4.0 | 0.00 | 0.33 | 0.15 | 79 | 1013.8 |
| 20260505201413 | 57 | 0 | 1.0 | 4.0 | 0.00 | 0.33 | 0.15 | 82 | 1013.8 |
| 20260505200911 | 57 | 0 | 1.0 | 4.0 | 0.00 | 0.33 | 0.15 | 82 | 1013.8 |
| 20260505200201 | 57 | 208 | 1.0 | 4.0 | 0.00 | 0.33 | 0.15 | 80 | 1013.9 |
| 20260505195911 | 57 | 83 | 1.0 | 5.0 | 0.00 | 0.33 | 0.15 | 80 | 1013.9 |
| 20260505195201 | 57 | 174 | 1.0 | 5.0 | 0.00 | 0.33 | 0.15 | 78 | 1013.9 |
| 20260505194701 | 57 | 0 | 1.0 | 3.0 | 0.00 | 0.33 | 0.15 | 76 | 1013.9 |
| 20260505194200 | 56 | 211 | 1.0 | 3.0 | 0.00 | 0.33 | 0.15 | 79 | 1014.1 |
| 20260505193700 | 56 | 0 | 1.0 | 3.0 | 0.00 | 0.33 | 0.15 | 82 | 1014.1 |
| 20260505193202 | 56 | 50 | 1.0 | 3.0 | 0.00 | 0.33 | 0.15 | 83 | 1014.1 |
| 20260505192702 | 56 | 203 | 1.0 | 3.0 | 0.00 | 0.33 | 0.15 | 85 | 1014.1 |
| 20260505192201 | 56 | 0 | 1.0 | 3.0 | 0.00 | 0.33 | 0.15 | 85 | 1014.1 |
| 20260505191701 | 55 | 237 | 1.0 | 3.0 | 0.00 | 0.33 | 0.15 | 85 | 1014.1 |
| 20260505191201 | 55 | 231 | 1.0 | 3.0 | 0.00 | 0.33 | 0.15 | 83 | 1014.1 |
| 20260505190701 | 55 | 216 | 0.0 | 3.0 | 0.00 | 0.33 | 0.15 | 82 | 1014.1 |
| 20260505190412 | 55 | 0 | 1.0 | 3.0 | 0.00 | 0.33 | 0.15 | 84 | 1014.1 |
| 20260505185701 | 55 | 230 | 1.0 | 3.0 | 0.00 | 0.33 | 0.15 | 83 | 1014.1 |
| 20260505185347 | 55 | 191 | 0.0 | 2.0 | 0.00 | 0.33 | 0.15 | 86 | 1014.1 |
| 20260505184911 | 55 | 0 | 0.0 | 2.0 | 0.00 | 0.33 | 0.15 | 85 | 1013.9 |
| 20260505184414 | 55 | 0 | 0.0 | 2.0 | 0.00 | 0.33 | 0.15 | 84 | 1013.8 |
| 20260505183702 | 55 | 207 | 0.0 | 2.0 | 0.00 | 0.33 | 0.15 | 84 | 1013.8 |
| 20260505183201 | 54 | 0 | 0.0 | 2.0 | 0.00 | 0.33 | 0.15 | 85 | 1013.9 |
| 20260505183148 | 54 | 0 | 0.0 | 2.0 | 0.00 | 0.33 | 0.15 | 86 | 1013.8 |
| 20260505182913 | 54 | 0 | 0.0 | 2.0 | 0.00 | 0.33 | 0.15 | 86 | 1013.8 |
| 20260505182201 | 55 | 0 | 1.0 | 3.0 | 0.00 | 0.33 | 0.15 | 85 | 1013.8 |
| 20260505181701 | 54 | 65 | 0.0 | 3.0 | 0.00 | 0.33 | 0.15 | 84 | 1013.7 |
| 20260505181412 | 54 | 0 | 0.0 | 0.0 | 0.00 | 0.33 | 0.15 | 86 | 1013.6 |
| 20260505180700 | 54 | 0 | 0.0 | 2.0 | 0.00 | 0.33 | 0.15 | 86 | 1013.6 |
| 20260505180200 | 54 | 0 | 0.0 | 2.0 | 0.00 | 0.33 | 0.15 | 87 | 1013.6 |
| 20260505175701 | 53 | 0 | 0.0 | 2.0 | 0.00 | 0.33 | 0.15 | 87 | 1013.7 |
| 20260505175414 | 53 | 0 | 0.0 | 1.0 | 0.00 | 0.33 | 0.15 | 88 | 1013.6 |
| 20260505174702 | 53 | 0 | 0.0 | 3.0 | 0.00 | 0.33 | 0.15 | 89 | 1013.6 |
| 20260505174201 | 53 | 223 | 0.0 | 3.0 | 0.00 | 0.33 | 0.15 | 89 | 1013.6 |
| 20260505173701 | 53 | 0 | 0.0 | 2.0 | 0.00 | 0.33 | 0.15 | 89 | 1013.5 |
| 20260505173201 | 53 | 207 | 0.0 | 2.0 | 0.00 | 0.33 | 0.15 | 89 | 1013.5 |
| 20260505173151 | 52 | 0 | 0.0 | 2.0 | 0.00 | 0.33 | 0.15 | 89 | 1013.5 |
| 20260505172912 | 52 | 0 | 0.0 | 2.0 | 0.00 | 0.33 | 0.15 | 89 | 1013.5 |
| 20260505172201 | 52 | 0 | 0.0 | 1.0 | 0.00 | 0.33 | 0.15 | 88 | 1013.4 |
| 20260505171701 | 52 | 0 | 0.0 | 2.0 | 0.00 | 0.33 | 0.15 | 88 | 1013.4 |
| 20260505171201 | 52 | 0 | 0.0 | 2.0 | 0.00 | 0.33 | 0.15 | 89 | 1013.4 |
| 20260505171115 | 52 | 190 | 0.0 | 2.0 | 0.00 | 0.33 | 0.15 | 88 | 1013.3 |
| 20260505170411 | 52 | 0 | 0.0 | 2.0 | 0.00 | 0.33 | 0.15 | 87 | 1013.4 |
| 20260505165701 | 52 | 233 | 0.0 | 2.0 | 0.00 | 0.33 | 0.15 | 89 | 1013.4 |
| 20260505165201 | 52 | 0 | 0.0 | 2.0 | 0.00 | 0.33 | 0.15 | 89 | 1013.4 |
| 20260505164912 | 52 | 227 | 0.0 | 2.0 | 0.00 | 0.33 | 0.15 | 89 | 1013.3 |
| 20260505164646 | 52 | 225 | 1.0 | 3.0 | 0.00 | 0.34 | 0.15 | 90 | 1013.3 |
| 20260505164411 | 52 | 225 | 1.0 | 3.0 | 0.00 | 0.34 | 0.15 | 90 | 1013.3 |
| 20260505163700 | 52 | 94 | 1.0 | 3.0 | 0.00 | 0.34 | 0.15 | 90 | 1013.2 |
| 20260505163200 | 52 | 0 | 1.0 | 2.0 | 0.00 | 0.35 | 0.15 | 90 | 1013.2 |
| 20260505162700 | 52 | 0 | 0.0 | 2.0 | 0.00 | 0.35 | 0.15 | 89 | 1013.3 |
| 20260505162411 | 51 | 0 | 0.0 | 1.0 | 0.00 | 0.35 | 0.15 | 90 | 1013.3 |
| 20260505161912 | 51 | 218 | 0.0 | 2.0 | 0.00 | 0.35 | 0.15 | 90 | 1013.3 |
| 20260505161200 | 51 | 0 | 0.0 | 2.0 | 0.00 | 0.35 | 0.15 | 90 | 1013.2 |
| 20260505160912 | 51 | 0 | 0.0 | 2.0 | 0.00 | 0.35 | 0.15 | 89 | 1013.2 |
| 20260505160201 | 51 | 192 | 0.0 | 2.0 | 0.00 | 0.35 | 0.15 | 90 | 1013.1 |
| 20260505152700 | 50 | 242 | 0.0 | 2.0 | 0.00 | 0.35 | 0.15 | 93 | 1013.2 |
| 20260505152201 | 50 | 0 | 0.0 | 1.0 | 0.00 | 0.35 | 0.15 | 94 | 1013.1 |
| 20260505151701 | 50 | 0 | 0.0 | 1.0 | 0.00 | 0.35 | 0.15 | 94 | 1013.1 |
| 20260505151413 | 50 | 226 | 0.0 | 2.0 | 0.00 | 0.35 | 0.15 | 94 | 1013.0 |
| 20260505150701 | 50 | 0 | 0.0 | 2.0 | 0.00 | 0.35 | 0.15 | 94 | 1012.9 |
| 20260505150201 | 49 | 224 | 0.0 | 1.0 | 0.00 | 0.35 | 0.15 | 95 | 1012.8 |
| 20260505150143 | 49 | 0 | 0.0 | 2.0 | 0.00 | 0.35 | 0.15 | 94 | 1012.8 |
| 20260505140647 | 49 | 0 | 0.0 | 1.0 | 0.00 | 0.35 | 0.15 | 95 | 1012.5 |
| 20260505140358 | 49 | 0 | 0.0 | 1.0 | 0.00 | 0.35 | 0.15 | 95 | 1012.5 |
| 20260505130134 | 49 | 0 | 0.0 | 0.0 | 0.00 | 0.37 | 0.15 | 95 | 1012.4 |
| 20260505124840 | 49 | 0 | 0.0 | 0.0 | 0.00 | 0.37 | 0.15 | 95 | 1012.3 |
| 20260505124129 | 48 | 0 | 0.0 | 0.0 | 0.00 | 0.37 | 0.15 | 95 | 1012.2 |
| 20260505123630 | 48 | 0 | 0.0 | 0.0 | 0.00 | 0.37 | 0.15 | 95 | 1012.3 |
| 20260505123129 | 48 | 0 | 0.0 | 0.0 | 0.00 | 0.37 | 0.15 | 95 | 1012.2 |
| 20260505122629 | 48 | 0 | 0.0 | 0.0 | 0.00 | 0.37 | 0.15 | 95 | 1012.2 |
| 20260505122341 | 48 | 0 | 0.0 | 0.0 | 0.00 | 0.37 | 0.15 | 95 | 1012.1 |
| 20260505121629 | 48 | 0 | 0.0 | 0.0 | 0.00 | 0.37 | 0.15 | 95 | 1012.2 |
| 20260505121614 | 48 | 0 | 0.0 | 0.0 | 0.00 | 0.37 | 0.15 | 95 | 1012.3 |
| 20260505121341 | 48 | 0 | 0.0 | 0.0 | 0.00 | 0.37 | 0.15 | 95 | 1012.3 |
| 20260505120629 | 48 | 0 | 0.0 | 0.0 | 0.00 | 0.37 | 0.15 | 94 | 1012.2 |
| 20260505120128 | 48 | 0 | 0.0 | 0.0 | 0.00 | 0.37 | 0.15 | 94 | 1012.2 |
| 20260505115629 | 48 | 0 | 0.0 | 0.0 | 0.00 | 0.37 | 0.15 | 94 | 1012.3 |
| 20260505115341 | 49 | 0 | 0.0 | 0.0 | 0.00 | 0.37 | 0.15 | 95 | 1012.2 |
| 20260505114629 | 49 | 0 | 0.0 | 0.0 | 0.00 | 0.37 | 0.15 | 95 | 1012.1 |
| 20260505114129 | 49 | 0 | 0.0 | 0.0 | 0.01 | 0.37 | 0.15 | 95 | 1012.2 |
| 20260505113629 | 49 | 0 | 0.0 | 0.0 | 0.01 | 0.37 | 0.15 | 95 | 1012.3 |
| 20260505113129 | 48 | 0 | 0.0 | 0.0 | 0.01 | 0.37 | 0.15 | 95 | 1012.4 |
| 20260505112629 | 48 | 0 | 0.0 | 0.0 | 0.02 | 0.37 | 0.15 | 94 | 1012.4 |
| 20260505112128 | 48 | 0 | 0.0 | 0.0 | 0.01 | 0.36 | 0.15 | 94 | 1012.3 |
| 20260505111629 | 49 | 0 | 0.0 | 0.0 | 0.01 | 0.36 | 0.15 | 94 | 1012.4 |
| 20260505111128 | 49 | 0 | 0.0 | 0.0 | 0.01 | 0.36 | 0.15 | 94 | 1012.5 |
| 20260505110630 | 49 | 0 | 0.0 | 0.0 | 0.01 | 0.36 | 0.15 | 94 | 1012.5 |
| 20260505110130 | 49 | 0 | 0.0 | 0.0 | 0.01 | 0.36 | 0.15 | 94 | 1012.3 |
| 20260505102128 | 49 | 0 | 0.0 | 0.0 | 0.02 | 0.35 | 0.14 | 94 | 1012.5 |
| 20260505101630 | 49 | 0 | 0.0 | 0.0 | 0.02 | 0.35 | 0.14 | 94 | 1012.5 |
| 20260505101129 | 49 | 0 | 0.0 | 0.0 | 0.03 | 0.35 | 0.14 | 94 | 1012.6 |
| 20260505100629 | 49 | 0 | 0.0 | 0.0 | 0.03 | 0.35 | 0.14 | 94 | 1012.7 |
| 20260505100340 | 49 | 0 | 0.0 | 1.0 | 0.04 | 0.35 | 0.14 | 94 | 1012.7 |
| 20260505095629 | 49 | 0 | 0.0 | 1.0 | 0.04 | 0.35 | 0.14 | 94 | 1012.7 |
| 20260505095128 | 49 | 0 | 0.0 | 0.0 | 0.04 | 0.35 | 0.13 | 94 | 1012.8 |
| 20260505094629 | 49 | 0 | 0.0 | 0.0 | 0.06 | 0.35 | 0.13 | 94 | 1012.8 |
| 20260505094128 | 49 | 0 | 0.0 | 0.0 | 0.07 | 0.35 | 0.13 | 94 | 1012.8 |
| 20260505093839 | 49 | 0 | 0.0 | 0.0 | 0.07 | 0.34 | 0.13 | 94 | 1012.7 |
| 20260505093128 | 49 | 0 | 0.0 | 0.0 | 0.07 | 0.34 | 0.13 | 94 | 1012.8 |
| 20260505092629 | 49 | 0 | 0.0 | 0.0 | 0.08 | 0.33 | 0.12 | 94 | 1012.8 |
| 20260505092342 | 49 | 0 | 0.0 | 0.0 | 0.08 | 0.33 | 0.11 | 94 | 1012.9 |
| 20260505091630 | 49 | 0 | 0.0 | 0.0 | 0.08 | 0.33 | 0.11 | 94 | 1012.9 |
| 20260505091129 | 49 | 0 | 0.0 | 0.0 | 0.08 | 0.32 | 0.11 | 94 | 1012.9 |
| 20260505090841 | 49 | 0 | 0.0 | 0.0 | 0.08 | 0.32 | 0.10 | 93 | 1012.9 |
| 20260505090342 | 49 | 0 | 0.0 | 0.0 | 0.08 | 0.31 | 0.10 | 93 | 1013.0 |
| 20260505085629 | 49 | 0 | 0.0 | 0.0 | 0.08 | 0.31 | 0.10 | 93 | 1012.9 |
| 20260505085129 | 49 | 0 | 0.0 | 0.0 | 0.07 | 0.30 | 0.09 | 93 | 1013.0 |
| 20260505084840 | 49 | 0 | 0.0 | 0.0 | 0.06 | 0.29 | 0.08 | 93 | 1013.1 |
| 20260505084340 | 49 | 0 | 0.0 | 0.0 | 0.04 | 0.28 | 0.07 | 93 | 1013.2 |
| 20260505083629 | 49 | 0 | 0.0 | 0.0 | 0.04 | 0.27 | 0.06 | 93 | 1013.2 |
| 20260505083341 | 49 | 0 | 0.0 | 0.0 | 0.03 | 0.26 | 0.05 | 93 | 1013.1 |
| 20260505083115 | 50 | 0 | 0.0 | 0.0 | 0.02 | 0.25 | 0.04 | 93 | 1013.2 |
| 20260505082840 | 50 | 0 | 0.0 | 0.0 | 0.02 | 0.25 | 0.04 | 93 | 1013.2 |
| 20260505082129 | 50 | 0 | 0.0 | 0.0 | 0.01 | 0.25 | 0.04 | 93 | 1013.3 |
| 20260505081629 | 50 | 0 | 0.0 | 0.0 | 0.01 | 0.24 | 0.03 | 93 | 1013.2 |
| 20260505081335 | 50 | 0 | 0.0 | 0.0 | 0.01 | 0.24 | 0.03 | 93 | 1013.2 |
| 20260505080836 | 50 | 0 | 0.0 | 0.0 | 0.01 | 0.24 | 0.03 | 93 | 1013.2 |